Year,Month,Day,Hour,Minute,Value (Times are PST for temperature in C)
2012,08,03,00,00,15.80
2012,08,03,00,01,15.80
2012,08,03,00,02,15.80
2012,08,03,00,03,15.80
2012,08,03,00,04,15.80
2012,08,03,00,05,15.80
2012,08,03,00,06,15.80
2012,08,03,00,07,15.70
2012,08,03,00,08,15.70
2012,08,03,00,09,15.70
2012,08,03,00,10,15.60
2012,08,03,00,11,15.60
2012,08,03,00,12,15.60
2012,08,03,00,13,15.50
2012,08,03,00,14,15.50
2012,08,03,00,15,15.40
2012,08,03,00,16,15.40
2012,08,03,00,17,15.40
2012,08,03,00,18,15.30
2012,08,03,00,19,15.30
2012,08,03,00,20,15.30
2012,08,03,00,21,15.20
2012,08,03,00,22,15.20
2012,08,03,00,23,15.20
2012,08,03,00,24,15.10
2012,08,03,00,25,15.10
2012,08,03,00,26,15.10
2012,08,03,00,27,15.00
2012,08,03,00,28,15.00
2012,08,03,00,29,15.00
2012,08,03,00,30,14.90
2012,08,03,00,31,14.90
2012,08,03,00,32,14.90
2012,08,03,00,33,14.90
2012,08,03,00,34,14.80
2012,08,03,00,35,14.80
2012,08,03,00,36,14.80
2012,08,03,00,37,14.80
2012,08,03,00,38,14.80
2012,08,03,00,39,14.80
2012,08,03,00,40,14.70
2012,08,03,00,41,14.70
2012,08,03,00,42,14.70
2012,08,03,00,43,14.70
2012,08,03,00,44,14.70
2012,08,03,00,45,14.70
2012,08,03,00,46,14.70
2012,08,03,00,47,14.70
2012,08,03,00,48,14.70
2012,08,03,00,49,14.70
2012,08,03,00,50,14.80
2012,08,03,00,51,14.80
2012,08,03,00,52,14.80
2012,08,03,00,53,14.80
2012,08,03,00,54,14.80
2012,08,03,00,55,14.80
2012,08,03,00,56,14.80
2012,08,03,00,57,14.80
2012,08,03,00,58,14.80
2012,08,03,00,59,14.80
2012,08,03,01,00,14.80
2012,08,03,01,01,14.80
2012,08,03,01,02,14.80
2012,08,03,01,03,14.80
2012,08,03,01,04,14.80
2012,08,03,01,05,14.80
2012,08,03,01,06,14.80
2012,08,03,01,07,14.70
2012,08,03,01,08,14.70
2012,08,03,01,09,14.70
2012,08,03,01,10,14.70
2012,08,03,01,11,14.70
2012,08,03,01,12,14.70
2012,08,03,01,13,14.70
2012,08,03,01,14,14.70
2012,08,03,01,15,14.70
2012,08,03,01,16,14.60
2012,08,03,01,17,14.60
2012,08,03,01,18,14.60
2012,08,03,01,19,14.60
2012,08,03,01,20,14.60
2012,08,03,01,21,14.60
2012,08,03,01,22,14.60
2012,08,03,01,23,14.60
2012,08,03,01,24,14.60
2012,08,03,01,25,14.60
2012,08,03,01,26,14.60
2012,08,03,01,27,14.60
2012,08,03,01,28,14.60
2012,08,03,01,29,14.60
2012,08,03,01,30,14.60
2012,08,03,01,31,14.60
2012,08,03,01,32,14.60
2012,08,03,01,33,14.60
2012,08,03,01,34,14.60
2012,08,03,01,35,14.50
2012,08,03,01,36,14.50
2012,08,03,01,37,14.50
2012,08,03,01,38,14.40
2012,08,03,01,39,14.40
2012,08,03,01,40,14.40
2012,08,03,01,41,14.40
2012,08,03,01,42,14.40
2012,08,03,01,43,14.40
2012,08,03,01,44,14.40
2012,08,03,01,45,14.40
2012,08,03,01,46,14.40
2012,08,03,01,47,14.30
2012,08,03,01,48,14.30
2012,08,03,01,49,14.30
2012,08,03,01,50,14.30
2012,08,03,01,51,14.30
2012,08,03,01,52,14.30
2012,08,03,01,53,14.30
2012,08,03,01,54,14.40
2012,08,03,01,55,14.40
2012,08,03,01,56,14.40
2012,08,03,01,57,14.40
2012,08,03,01,58,14.40
2012,08,03,01,59,14.40
2012,08,03,02,00,14.40
2012,08,03,02,01,14.40
2012,08,03,02,02,14.40
2012,08,03,02,03,14.40
2012,08,03,02,04,14.40
2012,08,03,02,05,14.40
2012,08,03,02,06,14.40
2012,08,03,02,07,14.40
2012,08,03,02,08,14.30
2012,08,03,02,09,14.30
2012,08,03,02,10,14.30
2012,08,03,02,11,14.30
2012,08,03,02,12,14.30
2012,08,03,02,13,14.30
2012,08,03,02,14,14.30
2012,08,03,02,15,14.30
2012,08,03,02,16,14.20
2012,08,03,02,17,14.20
2012,08,03,02,18,14.20
2012,08,03,02,19,14.20
2012,08,03,02,20,14.20
2012,08,03,02,21,14.20
2012,08,03,02,22,14.20
2012,08,03,02,23,14.20
2012,08,03,02,24,14.20
2012,08,03,02,25,14.20
2012,08,03,02,26,14.20
2012,08,03,02,27,14.20
2012,08,03,02,28,14.20
2012,08,03,02,29,14.20
2012,08,03,02,30,14.20
2012,08,03,02,31,14.20
2012,08,03,02,32,14.20
2012,08,03,02,33,14.10
2012,08,03,02,34,14.10
2012,08,03,02,35,14.10
2012,08,03,02,36,14.10
2012,08,03,02,37,14.10
2012,08,03,02,38,14.10
2012,08,03,02,39,14.10
2012,08,03,02,40,14.10
2012,08,03,02,41,14.00
2012,08,03,02,42,14.00
2012,08,03,02,43,14.00
2012,08,03,02,44,14.00
2012,08,03,02,45,14.00
2012,08,03,02,46,14.00
2012,08,03,02,47,13.90
2012,08,03,02,48,13.90
2012,08,03,02,49,13.90
2012,08,03,02,50,13.90
2012,08,03,02,51,13.90
2012,08,03,02,52,13.90
2012,08,03,02,53,13.90
2012,08,03,02,54,13.90
2012,08,03,02,55,13.90
2012,08,03,02,56,13.90
2012,08,03,02,57,13.90
2012,08,03,02,58,13.80
2012,08,03,02,59,13.80
2012,08,03,03,00,13.80
2012,08,03,03,01,13.80
2012,08,03,03,02,13.80
2012,08,03,03,06,13.80
2012,08,03,03,07,13.80
2012,08,03,03,08,13.80
2012,08,03,03,09,13.80
2012,08,03,03,10,13.80
2012,08,03,03,11,13.80
2012,08,03,03,12,13.80
2012,08,03,03,13,13.80
2012,08,03,03,14,13.80
2012,08,03,03,15,13.80
2012,08,03,03,16,13.80
2012,08,03,03,17,13.80
2012,08,03,03,18,13.80
2012,08,03,03,19,13.70
2012,08,03,03,20,13.70
2012,08,03,03,21,13.70
2012,08,03,03,22,13.70
2012,08,03,03,23,13.70
2012,08,03,03,24,13.70
2012,08,03,03,25,13.70
2012,08,03,03,26,13.70
2012,08,03,03,27,13.70
2012,08,03,03,28,13.60
2012,08,03,03,29,13.60
2012,08,03,03,30,13.60
2012,08,03,03,31,13.60
2012,08,03,03,32,13.60
2012,08,03,03,33,13.60
2012,08,03,03,34,13.60
2012,08,03,03,35,13.60
2012,08,03,03,36,13.60
2012,08,03,03,37,13.60
2012,08,03,03,38,13.60
2012,08,03,03,39,13.60
2012,08,03,03,40,13.60
2012,08,03,03,41,13.60
2012,08,03,03,42,13.60
2012,08,03,03,43,13.60
2012,08,03,03,44,13.60
2012,08,03,03,45,13.60
2012,08,03,03,46,13.60
2012,08,03,03,47,13.60
2012,08,03,03,48,13.50
2012,08,03,03,49,13.50
2012,08,03,03,50,13.50
2012,08,03,03,51,13.50
2012,08,03,03,52,13.50
2012,08,03,03,53,13.50
2012,08,03,03,54,13.50
2012,08,03,03,55,13.50
2012,08,03,03,56,13.50
2012,08,03,03,57,13.50
2012,08,03,03,58,13.50
2012,08,03,03,59,13.50
2012,08,03,04,00,13.50
2012,08,03,04,01,13.40
2012,08,03,04,02,13.40
2012,08,03,04,03,13.40
2012,08,03,04,04,13.40
2012,08,03,04,05,13.40
2012,08,03,04,06,13.40
2012,08,03,04,07,13.40
2012,08,03,04,08,13.40
2012,08,03,04,09,13.40
2012,08,03,04,10,13.40
2012,08,03,04,11,13.40
2012,08,03,04,12,13.40
2012,08,03,04,13,13.40
2012,08,03,04,14,13.40
2012,08,03,04,15,13.40
2012,08,03,04,16,13.40
2012,08,03,04,17,13.40
2012,08,03,04,18,13.40
2012,08,03,04,19,13.40
2012,08,03,04,20,13.40
2012,08,03,04,21,13.40
2012,08,03,04,22,13.40
2012,08,03,04,23,13.40
2012,08,03,04,24,13.40
2012,08,03,04,25,13.40
2012,08,03,04,26,13.40
2012,08,03,04,27,13.40
2012,08,03,04,28,13.40
2012,08,03,04,29,13.30
2012,08,03,04,30,13.30
2012,08,03,04,31,13.30
2012,08,03,04,32,13.30
2012,08,03,04,33,13.30
2012,08,03,04,34,13.30
2012,08,03,04,35,13.30
2012,08,03,04,36,13.30
2012,08,03,04,37,13.30
2012,08,03,04,38,13.30
2012,08,03,04,39,13.20
2012,08,03,04,40,13.20
2012,08,03,04,41,13.20
2012,08,03,04,42,13.20
2012,08,03,04,43,13.20
2012,08,03,04,44,13.20
2012,08,03,04,45,13.20
2012,08,03,04,46,13.20
2012,08,03,04,47,13.20
2012,08,03,04,48,13.20
2012,08,03,04,49,13.20
2012,08,03,04,50,13.20
2012,08,03,04,51,13.20
2012,08,03,04,52,13.20
2012,08,03,04,53,13.20
2012,08,03,04,54,13.20
2012,08,03,04,55,13.20
2012,08,03,04,56,13.20
2012,08,03,04,57,13.20
2012,08,03,04,58,13.10
2012,08,03,04,59,13.10
2012,08,03,05,00,13.10
2012,08,03,05,01,13.10
2012,08,03,05,02,13.10
2012,08,03,05,03,13.10
2012,08,03,05,04,13.10
2012,08,03,05,05,13.10
2012,08,03,05,06,13.10
2012,08,03,05,07,13.10
2012,08,03,05,08,13.00
2012,08,03,05,09,13.00
2012,08,03,05,10,13.00
2012,08,03,05,11,13.00
2012,08,03,05,12,13.00
2012,08,03,05,13,13.00
2012,08,03,05,14,12.90
2012,08,03,05,15,12.90
2012,08,03,05,16,12.90
2012,08,03,05,17,12.90
2012,08,03,05,18,12.90
2012,08,03,05,19,12.90
2012,08,03,05,20,12.80
2012,08,03,05,21,12.80
2012,08,03,05,22,12.80
2012,08,03,05,23,12.80
2012,08,03,05,24,12.80
2012,08,03,05,25,12.80
2012,08,03,05,26,12.80
2012,08,03,05,27,12.80
2012,08,03,05,28,12.80
2012,08,03,05,29,12.80
2012,08,03,05,30,12.80
2012,08,03,05,31,12.80
2012,08,03,05,32,12.80
2012,08,03,05,33,12.80
2012,08,03,05,34,12.80
2012,08,03,05,35,12.80
2012,08,03,05,36,12.80
2012,08,03,05,37,12.80
2012,08,03,05,38,12.80
2012,08,03,05,39,12.80
2012,08,03,05,40,12.80
2012,08,03,05,41,12.80
2012,08,03,05,42,12.80
2012,08,03,05,43,12.80
2012,08,03,05,44,12.70
2012,08,03,05,45,12.70
2012,08,03,05,46,12.70
2012,08,03,05,47,12.70
2012,08,03,05,48,12.70
2012,08,03,05,49,12.80
2012,08,03,05,50,12.80
2012,08,03,05,51,12.80
2012,08,03,05,52,12.80
2012,08,03,05,53,12.80
2012,08,03,05,54,12.80
2012,08,03,05,55,12.80
2012,08,03,05,56,12.80
2012,08,03,05,57,12.80
2012,08,03,05,58,12.80
2012,08,03,05,59,12.80
2012,08,03,06,00,12.80
2012,08,03,06,01,12.80
2012,08,03,06,02,12.80
2012,08,03,06,03,12.90
2012,08,03,06,04,12.90
2012,08,03,06,05,12.90
2012,08,03,06,06,12.90
2012,08,03,06,07,12.90
2012,08,03,06,08,12.90
2012,08,03,06,09,12.90
2012,08,03,06,10,12.90
2012,08,03,06,11,12.80
2012,08,03,06,12,12.80
2012,08,03,06,13,12.80
2012,08,03,06,14,12.80
2012,08,03,06,15,12.80
2012,08,03,06,16,12.80
2012,08,03,06,17,12.80
2012,08,03,06,18,12.80
2012,08,03,06,19,12.80
2012,08,03,06,20,12.80
2012,08,03,06,21,12.80
2012,08,03,06,22,12.80
2012,08,03,06,23,12.80
2012,08,03,06,24,12.80
2012,08,03,06,25,12.80
2012,08,03,06,26,12.80
2012,08,03,06,27,12.80
2012,08,03,06,28,12.80
2012,08,03,06,29,12.80
2012,08,03,06,30,12.80
2012,08,03,06,31,12.80
2012,08,03,06,32,12.80
2012,08,03,06,33,12.80
2012,08,03,06,34,12.80
2012,08,03,06,35,12.80
2012,08,03,06,36,12.80
2012,08,03,06,37,12.80
2012,08,03,06,38,12.80
2012,08,03,06,39,12.80
2012,08,03,06,40,12.80
2012,08,03,06,41,12.90
2012,08,03,06,42,12.90
2012,08,03,06,43,12.90
2012,08,03,06,44,12.90
2012,08,03,06,45,12.90
2012,08,03,06,46,12.90
2012,08,03,06,47,12.90
2012,08,03,06,48,12.90
2012,08,03,06,49,12.90
2012,08,03,06,50,12.90
2012,08,03,06,51,13.00
2012,08,03,06,52,13.00
2012,08,03,06,53,13.00
2012,08,03,06,54,13.00
2012,08,03,06,55,13.00
2012,08,03,06,56,13.00
2012,08,03,06,57,13.10
2012,08,03,06,58,13.10
2012,08,03,06,59,13.10
2012,08,03,07,00,13.10
2012,08,03,07,01,13.10
2012,08,03,07,02,13.10
2012,08,03,07,03,13.10
2012,08,03,07,04,13.20
2012,08,03,07,05,13.20
2012,08,03,07,06,13.20
2012,08,03,07,07,13.30
2012,08,03,07,08,13.30
2012,08,03,07,09,13.40
2012,08,03,07,10,13.40
2012,08,03,07,11,13.50
2012,08,03,07,12,13.60
2012,08,03,07,13,13.60
2012,08,03,07,14,13.70
2012,08,03,07,15,13.80
2012,08,03,07,16,13.80
2012,08,03,07,17,13.90
2012,08,03,07,18,14.00
2012,08,03,07,19,14.00
2012,08,03,07,20,14.10
2012,08,03,07,21,14.20
2012,08,03,07,22,14.30
2012,08,03,07,23,14.40
2012,08,03,07,24,14.40
2012,08,03,07,25,14.50
2012,08,03,07,26,14.60
2012,08,03,07,27,14.60
2012,08,03,07,28,14.70
2012,08,03,07,29,14.80
2012,08,03,07,30,14.80
2012,08,03,07,31,14.90
2012,08,03,07,32,14.90
2012,08,03,07,33,15.00
2012,08,03,07,34,15.00
2012,08,03,07,35,15.10
2012,08,03,07,36,15.20
2012,08,03,07,37,15.20
2012,08,03,07,38,15.30
2012,08,03,07,39,15.30
2012,08,03,07,40,15.30
2012,08,03,07,41,15.40
2012,08,03,07,42,15.40
2012,08,03,07,43,15.50
2012,08,03,07,44,15.60
2012,08,03,07,45,15.70
2012,08,03,07,46,15.70
2012,08,03,07,47,15.80
2012,08,03,07,48,15.80
2012,08,03,07,49,15.90
2012,08,03,07,50,15.90
2012,08,03,07,51,16.00
2012,08,03,07,52,16.00
2012,08,03,07,53,16.00
2012,08,03,07,54,16.10
2012,08,03,07,55,16.10
2012,08,03,07,56,16.10
2012,08,03,07,57,16.10
2012,08,03,07,58,16.10
2012,08,03,07,59,16.20
2012,08,03,08,00,16.20
2012,08,03,08,01,16.20
2012,08,03,08,02,16.20
2012,08,03,08,03,16.20
2012,08,03,08,04,16.20
2012,08,03,08,05,16.20
2012,08,03,08,06,16.20
2012,08,03,08,07,16.20
2012,08,03,08,08,16.20
2012,08,03,08,09,16.20
2012,08,03,08,10,16.20
2012,08,03,08,11,16.20
2012,08,03,08,12,16.20
2012,08,03,08,13,16.20
2012,08,03,08,14,16.20
2012,08,03,08,15,16.20
2012,08,03,08,16,16.20
2012,08,03,08,17,16.20
2012,08,03,08,18,16.20
2012,08,03,08,19,16.20
2012,08,03,08,20,16.20
2012,08,03,08,21,16.20
2012,08,03,08,22,16.20
2012,08,03,08,23,16.20
2012,08,03,08,24,16.20
2012,08,03,08,25,16.20
2012,08,03,08,26,16.20
2012,08,03,08,27,16.20
2012,08,03,08,28,16.20
2012,08,03,08,29,16.20
2012,08,03,08,30,16.20
2012,08,03,08,31,16.20
2012,08,03,08,32,16.20
2012,08,03,08,33,16.20
2012,08,03,08,34,16.30
2012,08,03,08,35,16.30
2012,08,03,08,36,16.30
2012,08,03,08,37,16.40
2012,08,03,08,38,16.40
2012,08,03,08,39,16.50
2012,08,03,08,40,16.60
2012,08,03,08,41,16.70
2012,08,03,08,42,16.70
2012,08,03,08,43,16.70
2012,08,03,08,44,16.80
2012,08,03,08,45,16.80
2012,08,03,08,46,16.90
2012,08,03,08,47,16.90
2012,08,03,08,48,17.00
2012,08,03,08,49,17.00
2012,08,03,08,50,17.10
2012,08,03,08,51,17.20
2012,08,03,08,52,17.20
2012,08,03,08,53,17.20
2012,08,03,08,54,17.20
2012,08,03,08,55,17.20
2012,08,03,08,56,17.20
2012,08,03,08,57,17.20
2012,08,03,08,58,17.30
2012,08,03,08,59,17.30
2012,08,03,09,00,17.30
2012,08,03,09,01,17.40
2012,08,03,09,02,17.40
2012,08,03,09,03,17.50
2012,08,03,09,04,17.60
2012,08,03,09,05,17.60
2012,08,03,09,06,17.70
2012,08,03,09,07,17.70
2012,08,03,09,08,17.70
2012,08,03,09,09,17.80
2012,08,03,09,10,17.80
2012,08,03,09,11,17.80
2012,08,03,09,12,17.80
2012,08,03,09,13,17.90
2012,08,03,09,14,18.10
2012,08,03,09,15,18.20
2012,08,03,09,16,18.30
2012,08,03,09,17,18.30
2012,08,03,09,18,18.40
2012,08,03,09,19,18.40
2012,08,03,09,20,18.40
2012,08,03,09,21,18.40
2012,08,03,09,22,18.50
2012,08,03,09,23,18.60
2012,08,03,09,24,18.70
2012,08,03,09,25,18.70
2012,08,03,09,26,18.70
2012,08,03,09,27,18.70
2012,08,03,09,28,18.70
2012,08,03,09,29,18.70
2012,08,03,09,30,18.80
2012,08,03,09,31,18.90
2012,08,03,09,32,18.90
2012,08,03,09,33,19.00
2012,08,03,09,34,19.00
2012,08,03,09,35,19.00
2012,08,03,09,36,19.00
2012,08,03,09,37,19.10
2012,08,03,09,38,19.10
2012,08,03,09,39,19.20
2012,08,03,09,40,19.30
2012,08,03,09,41,19.30
2012,08,03,09,42,19.40
2012,08,03,09,43,19.40
2012,08,03,09,44,19.40
2012,08,03,09,45,19.40
2012,08,03,09,46,19.40
2012,08,03,09,47,19.50
2012,08,03,09,48,19.50
2012,08,03,09,49,19.50
2012,08,03,09,50,19.60
2012,08,03,09,51,19.60
2012,08,03,09,52,19.70
2012,08,03,09,53,19.70
2012,08,03,09,54,19.70
2012,08,03,09,55,19.80
2012,08,03,09,56,19.80
2012,08,03,09,57,19.80
2012,08,03,09,58,19.90
2012,08,03,09,59,19.90
2012,08,03,10,00,20.00
2012,08,03,10,01,20.00
2012,08,03,10,02,20.10
2012,08,03,10,03,20.10
2012,08,03,10,04,20.20
2012,08,03,10,05,20.20
2012,08,03,10,06,20.30
2012,08,03,10,07,20.30
2012,08,03,10,08,20.40
2012,08,03,10,09,20.40
2012,08,03,10,10,20.50
2012,08,03,10,11,20.50
2012,08,03,10,12,20.50
2012,08,03,10,13,20.50
2012,08,03,10,14,20.60
2012,08,03,10,15,20.60
2012,08,03,10,16,20.70
2012,08,03,10,17,20.80
2012,08,03,10,18,20.80
2012,08,03,10,19,20.90
2012,08,03,10,20,21.00
2012,08,03,10,21,21.00
2012,08,03,10,22,21.10
2012,08,03,10,23,21.20
2012,08,03,10,24,21.20
2012,08,03,10,25,21.20
2012,08,03,10,26,21.30
2012,08,03,10,27,21.30
2012,08,03,10,28,21.30
2012,08,03,10,29,21.30
2012,08,03,10,30,21.30
2012,08,03,10,31,21.30
2012,08,03,10,32,21.40
2012,08,03,10,33,21.40
2012,08,03,10,34,21.40
2012,08,03,10,35,21.40
2012,08,03,10,36,21.50
2012,08,03,10,37,21.60
2012,08,03,10,38,21.60
2012,08,03,10,39,21.70
2012,08,03,10,40,21.70
2012,08,03,10,41,21.80
2012,08,03,10,42,21.80
2012,08,03,10,43,21.80
2012,08,03,10,44,21.90
2012,08,03,10,45,21.90
2012,08,03,10,46,21.90
2012,08,03,10,47,21.80
2012,08,03,10,48,21.70
2012,08,03,10,49,21.70
2012,08,03,10,50,21.70
2012,08,03,10,51,21.60
2012,08,03,10,52,21.70
2012,08,03,10,53,21.70
2012,08,03,10,54,21.70
2012,08,03,10,55,21.70
2012,08,03,10,56,21.70
2012,08,03,10,57,21.80
2012,08,03,10,58,21.80
2012,08,03,10,59,21.80
2012,08,03,11,00,21.80
2012,08,03,11,01,21.70
2012,08,03,11,02,21.70
2012,08,03,11,03,21.70
2012,08,03,11,04,21.70
2012,08,03,11,05,21.80
2012,08,03,11,06,21.90
2012,08,03,11,07,22.00
2012,08,03,11,08,22.20
2012,08,03,11,09,22.30
2012,08,03,11,10,22.40
2012,08,03,11,11,22.50
2012,08,03,11,12,22.50
2012,08,03,11,13,22.60
2012,08,03,11,14,22.60
2012,08,03,11,15,22.60
2012,08,03,11,16,22.60
2012,08,03,11,17,22.60
2012,08,03,11,18,22.60
2012,08,03,11,19,22.70
2012,08,03,11,20,22.80
2012,08,03,11,21,22.80
2012,08,03,11,22,22.80
2012,08,03,11,23,22.80
2012,08,03,11,24,22.80
2012,08,03,11,25,22.80
2012,08,03,11,26,22.80
2012,08,03,11,27,22.80
2012,08,03,11,28,22.90
2012,08,03,11,29,23.00
2012,08,03,11,30,23.10
2012,08,03,11,31,23.20
2012,08,03,11,32,23.20
2012,08,03,11,33,23.10
2012,08,03,11,34,23.10
2012,08,03,11,35,23.00
2012,08,03,11,36,23.00
2012,08,03,11,37,23.00
2012,08,03,11,38,23.00
2012,08,03,11,39,23.10
2012,08,03,11,40,23.10
2012,08,03,11,41,23.20
2012,08,03,11,42,23.30
2012,08,03,11,43,23.30
2012,08,03,11,44,23.40
2012,08,03,11,45,23.40
2012,08,03,11,46,23.50
2012,08,03,11,47,23.50
2012,08,03,11,48,23.50
2012,08,03,11,49,23.60
2012,08,03,11,50,23.70
2012,08,03,11,51,23.80
2012,08,03,11,52,23.90
2012,08,03,11,53,24.00
2012,08,03,11,54,24.10
2012,08,03,11,55,24.00
2012,08,03,11,56,24.00
2012,08,03,11,57,23.90
2012,08,03,11,58,23.80
2012,08,03,11,59,23.80
2012,08,03,12,00,23.70
2012,08,03,12,01,23.70
2012,08,03,12,02,23.80
2012,08,03,12,03,23.80
2012,08,03,12,04,23.90
2012,08,03,12,05,24.00
2012,08,03,12,06,24.10
2012,08,03,12,07,24.20
2012,08,03,12,08,24.30
2012,08,03,12,09,24.30
2012,08,03,12,10,24.30
2012,08,03,12,11,24.30
2012,08,03,12,12,24.30
2012,08,03,12,13,24.40
2012,08,03,12,14,24.40
2012,08,03,12,15,24.30
2012,08,03,12,16,24.20
2012,08,03,12,17,24.10
2012,08,03,12,18,24.10
2012,08,03,12,19,24.10
2012,08,03,12,20,24.20
2012,08,03,12,21,24.30
2012,08,03,12,22,24.50
2012,08,03,12,23,24.60
2012,08,03,12,24,24.70
2012,08,03,12,25,24.80
2012,08,03,12,26,24.80
2012,08,03,12,27,24.90
2012,08,03,12,28,25.00
2012,08,03,12,29,25.20
2012,08,03,12,30,25.30
2012,08,03,12,31,25.40
2012,08,03,12,32,25.50
2012,08,03,12,33,25.60
2012,08,03,12,34,25.50
2012,08,03,12,35,25.40
2012,08,03,12,36,25.30
2012,08,03,12,37,25.40
2012,08,03,12,38,25.40
2012,08,03,12,39,25.40
2012,08,03,12,40,25.40
2012,08,03,12,41,25.40
2012,08,03,12,42,25.40
2012,08,03,12,43,25.30
2012,08,03,12,44,25.40
2012,08,03,12,45,25.40
2012,08,03,12,46,25.40
2012,08,03,12,47,25.50
2012,08,03,12,48,25.60
2012,08,03,12,49,25.70
2012,08,03,12,50,25.70
2012,08,03,12,51,25.70
2012,08,03,12,52,25.70
2012,08,03,12,53,25.70
2012,08,03,12,54,25.70
2012,08,03,12,55,25.70
2012,08,03,12,56,25.70
2012,08,03,12,57,25.60
2012,08,03,12,58,25.60
2012,08,03,12,59,25.70
2012,08,03,13,00,25.70
2012,08,03,13,01,25.80
2012,08,03,13,02,25.80
2012,08,03,13,03,25.90
2012,08,03,13,04,25.90
2012,08,03,13,05,26.00
2012,08,03,13,06,26.10
2012,08,03,13,07,26.20
2012,08,03,13,08,26.20
2012,08,03,13,09,26.10
2012,08,03,13,10,26.00
2012,08,03,13,11,25.90
2012,08,03,13,12,25.90
2012,08,03,13,13,25.90
2012,08,03,13,14,26.00
2012,08,03,13,15,26.10
2012,08,03,13,16,26.20
2012,08,03,13,17,26.40
2012,08,03,13,18,26.50
2012,08,03,13,19,26.60
2012,08,03,13,20,26.70
2012,08,03,13,21,26.80
2012,08,03,13,22,26.90
2012,08,03,13,23,27.00
2012,08,03,13,24,27.10
2012,08,03,13,25,27.20
2012,08,03,13,26,27.30
2012,08,03,13,27,27.40
2012,08,03,13,28,27.40
2012,08,03,13,29,27.40
2012,08,03,13,30,27.30
2012,08,03,13,31,27.20
2012,08,03,13,32,27.20
2012,08,03,13,33,27.10
2012,08,03,13,34,27.10
2012,08,03,13,35,27.10
2012,08,03,13,36,27.10
2012,08,03,13,37,27.10
2012,08,03,13,38,27.10
2012,08,03,13,39,27.20
2012,08,03,13,40,27.30
2012,08,03,13,41,27.40
2012,08,03,13,42,27.50
2012,08,03,13,43,27.60
2012,08,03,13,44,27.60
2012,08,03,13,45,27.70
2012,08,03,13,46,27.70
2012,08,03,13,47,27.80
2012,08,03,13,48,27.80
2012,08,03,13,49,27.80
2012,08,03,13,50,27.80
2012,08,03,13,51,27.80
2012,08,03,13,52,27.70
2012,08,03,13,53,27.70
2012,08,03,13,54,27.70
2012,08,03,13,55,27.70
2012,08,03,13,56,27.70
2012,08,03,13,57,27.80
2012,08,03,13,58,27.80
2012,08,03,13,59,27.90
2012,08,03,14,00,28.00
2012,08,03,14,01,28.10
2012,08,03,14,02,28.20
2012,08,03,14,03,28.20
2012,08,03,14,04,28.20
2012,08,03,14,05,28.20
2012,08,03,14,06,28.20
2012,08,03,14,07,28.40
2012,08,03,14,08,28.40
2012,08,03,14,09,28.50
2012,08,03,14,10,28.50
2012,08,03,14,11,28.60
2012,08,03,14,12,28.70
2012,08,03,14,13,28.80
2012,08,03,14,14,28.90
2012,08,03,14,15,28.90
2012,08,03,14,16,29.00
2012,08,03,14,17,29.10
2012,08,03,14,18,29.10
2012,08,03,14,19,29.00
2012,08,03,14,20,29.00
2012,08,03,14,21,29.10
2012,08,03,14,22,29.10
2012,08,03,14,23,29.20
2012,08,03,14,24,29.20
2012,08,03,14,25,29.20
2012,08,03,14,26,29.20
2012,08,03,14,27,29.30
2012,08,03,14,28,29.30
2012,08,03,14,29,29.30
2012,08,03,14,30,29.30
2012,08,03,14,31,29.30
2012,08,03,14,32,29.20
2012,08,03,14,33,29.10
2012,08,03,14,34,29.00
2012,08,03,14,35,29.00
2012,08,03,14,36,28.90
2012,08,03,14,37,28.90
2012,08,03,14,38,28.90
2012,08,03,14,39,28.90
2012,08,03,14,40,28.90
2012,08,03,14,41,28.80
2012,08,03,14,42,28.90
2012,08,03,14,43,29.00
2012,08,03,14,44,29.10
2012,08,03,14,45,29.10
2012,08,03,14,46,29.20
2012,08,03,14,47,29.20
2012,08,03,14,48,29.30
2012,08,03,14,49,29.40
2012,08,03,14,50,29.50
2012,08,03,14,51,29.60
2012,08,03,14,52,29.70
2012,08,03,14,53,29.70
2012,08,03,14,54,29.60
2012,08,03,14,55,29.60
2012,08,03,14,56,29.50
2012,08,03,14,57,29.40
2012,08,03,14,58,29.40
2012,08,03,14,59,29.40
2012,08,03,15,00,29.50
2012,08,03,15,01,29.60
2012,08,03,15,02,29.60
2012,08,03,15,03,29.60
2012,08,03,15,04,29.60
2012,08,03,15,05,29.60
2012,08,03,15,06,29.70
2012,08,03,15,07,29.80
2012,08,03,15,08,29.80
2012,08,03,15,09,29.80
2012,08,03,15,10,29.80
2012,08,03,15,11,29.80
2012,08,03,15,12,29.90
2012,08,03,15,13,29.90
2012,08,03,15,14,30.00
2012,08,03,15,15,30.10
2012,08,03,15,16,30.10
2012,08,03,15,17,30.10
2012,08,03,15,18,30.20
2012,08,03,15,19,30.30
2012,08,03,15,20,30.30
2012,08,03,15,21,30.40
2012,08,03,15,22,30.50
2012,08,03,15,23,30.50
2012,08,03,15,24,30.60
2012,08,03,15,25,30.60
2012,08,03,15,26,30.60
2012,08,03,15,27,30.50
2012,08,03,15,28,30.50
2012,08,03,15,29,30.40
2012,08,03,15,30,30.40
2012,08,03,15,31,30.40
2012,08,03,15,32,30.50
2012,08,03,15,33,30.50
2012,08,03,15,34,30.60
2012,08,03,15,35,30.60
2012,08,03,15,36,30.70
2012,08,03,15,37,30.70
2012,08,03,15,38,30.70
2012,08,03,15,39,30.80
2012,08,03,15,40,30.80
2012,08,03,15,41,30.80
2012,08,03,15,42,30.80
2012,08,03,15,43,30.80
2012,08,03,15,44,30.80
2012,08,03,15,45,30.80
2012,08,03,15,46,30.80
2012,08,03,15,47,30.80
2012,08,03,15,48,30.80
2012,08,03,15,49,30.80
2012,08,03,15,50,30.70
2012,08,03,15,51,30.80
2012,08,03,15,52,30.80
2012,08,03,15,53,31.00
2012,08,03,15,54,31.10
2012,08,03,15,55,31.10
2012,08,03,15,56,31.10
2012,08,03,15,57,31.10
2012,08,03,15,58,31.00
2012,08,03,15,59,31.00
2012,08,03,16,00,30.90
2012,08,03,16,01,30.80
2012,08,03,16,02,30.70
2012,08,03,16,03,30.70
2012,08,03,16,04,30.70
2012,08,03,16,05,30.80
2012,08,03,16,06,30.90
2012,08,03,16,07,31.00
2012,08,03,16,08,31.10
2012,08,03,16,09,31.20
2012,08,03,16,10,31.20
2012,08,03,16,11,31.30
2012,08,03,16,12,31.30
2012,08,03,16,13,31.30
2012,08,03,16,14,31.30
2012,08,03,16,15,31.30
2012,08,03,16,16,31.20
2012,08,03,16,17,31.10
2012,08,03,16,18,31.00
2012,08,03,16,19,31.00
2012,08,03,16,20,30.90
2012,08,03,16,21,30.90
2012,08,03,16,22,30.90
2012,08,03,16,23,31.00
2012,08,03,16,24,31.00
2012,08,03,16,25,31.00
2012,08,03,16,26,31.00
2012,08,03,16,27,30.90
2012,08,03,16,28,30.90
2012,08,03,16,29,30.90
2012,08,03,16,30,30.90
2012,08,03,16,31,31.00
2012,08,03,16,32,31.00
2012,08,03,16,33,30.90
2012,08,03,16,34,31.00
2012,08,03,16,35,31.00
2012,08,03,16,36,31.00
2012,08,03,16,37,31.00
2012,08,03,16,38,31.00
2012,08,03,16,39,31.00
2012,08,03,16,40,31.00
2012,08,03,16,41,31.00
2012,08,03,16,42,31.00
2012,08,03,16,43,31.00
2012,08,03,16,44,30.90
2012,08,03,16,45,30.90
2012,08,03,16,46,30.80
2012,08,03,16,47,30.80
2012,08,03,16,48,30.90
2012,08,03,16,49,31.10
2012,08,03,16,50,31.10
2012,08,03,16,51,31.20
2012,08,03,16,52,31.20
2012,08,03,16,53,31.10
2012,08,03,16,54,31.10
2012,08,03,16,55,31.00
2012,08,03,16,56,30.90
2012,08,03,16,57,30.80
2012,08,03,16,58,30.80
2012,08,03,16,59,30.80
2012,08,03,17,00,30.80
2012,08,03,17,01,30.80
2012,08,03,17,02,30.80
2012,08,03,17,03,30.80
2012,08,03,17,04,30.80
2012,08,03,17,05,30.80
2012,08,03,17,06,30.80
2012,08,03,17,07,30.80
2012,08,03,17,08,30.80
2012,08,03,17,09,30.70
2012,08,03,17,10,30.70
2012,08,03,17,11,30.60
2012,08,03,17,12,30.60
2012,08,03,17,13,30.60
2012,08,03,17,14,30.60
2012,08,03,17,15,30.60
2012,08,03,17,16,30.70
2012,08,03,17,17,30.70
2012,08,03,17,18,30.80
2012,08,03,17,19,30.90
2012,08,03,17,20,30.90
2012,08,03,17,21,30.90
2012,08,03,17,22,30.80